ONEWEB-0119 (47265 NORAD) Tracking and Keplerian Element Data
This shows tracking and keplerian element data for the satellite.
Feedback or suggestion? Click here.
Element | Value |
Catalog | 47265 |
Name | ONEWEB-0119 |
Epoch Orbit | 171 |
Epoch Day | 62.91667824 |
Epoch Year | 2021 |
RAAN | 15.6374 |
Inclination | 87.6178 |
Eccentricity | 0.0014549 |
Argument of Perigee | 21.8852 |
Mean Anonmoly | 276.516 |
Mean Motion | 13.97371783 |
Decay Rate | -0.00031058 |
L1 | 1 47265U 20100H 21062.91667824 -.00031058 00000-0 -22235-1 0 9995 |
L2 | 2 47265 87.6178 15.6374 0014549 21.8852 276.5160 13.97371783 1713 |
Live tracking and technical data element details for ONEWEB-0119 (NORAD 47265). ONEWEB-0119 can be tracked NOW for your location showing map with azimuth and elevation plus other details from your city location.
Track the satellite on the map from your city or location and see movement details for azimuth, elevation, latitude, longitude, range, height, and movement on the map or in text.
IsCatalogInMostPopularTable: catalog: 47265, numindb: 25
Update: records affected: 1
GetName: 47265 ONEWEB-0119
Hit Count: updated at: Fri, 05 Mar 2021 06:40:36 GMT